,,,PA_Meas_PMT16A,,PR_Meas_QMR101_102,,RH_Meas_QMH101,,SR_Meas_QMS101,,TA_Meas_QMH101,,GenWind,,GenWind,
date,time,status,PA,status,PR,status,RH,status,SR,status,TA,status,DirAvg,status,SpdAvg,
2011-07-06, 00:00:04,VALID,1000.98,VALID,0,VALID,60.9759,VALID,0,VALID,27.3912,VALID,173,VALID,5.40938,
2011-07-06, 00:01:04,VALID,1000.91,VALID,0,VALID,60.9759,VALID,0,VALID,27.3696,VALID,172,VALID,5.73164,
2011-07-06, 00:02:04,VALID,1000.93,VALID,0,VALID,61.0827,VALID,0,VALID,27.4107,VALID,154,VALID,4.39648,
2011-07-06, 00:03:04,VALID,1000.97,VALID,0,VALID,61.365,VALID,0,VALID,27.3521,VALID,173,VALID,4.51094,
2011-07-06, 00:04:04,VALID,1000.94,VALID,0,VALID,61.51,VALID,0,VALID,27.3696,VALID,167,VALID,5.83047,
2011-07-06, 00:05:04,VALID,1000.9,VALID,0,VALID,61.7618,VALID,0,VALID,27.3326,VALID,151,VALID,5.14687,
2011-07-06, 00:06:04,VALID,1000.88,VALID,0,VALID,61.983,VALID,0,VALID,27.2524,VALID,156,VALID,4.28555,
2011-07-06, 00:07:04,VALID,1000.91,VALID,0,VALID,62.479,VALID,0,VALID,27.2329,VALID,163,VALID,5.39414,
2011-07-06, 00:08:04,VALID,1000.84,VALID,0,VALID,62.3111,VALID,0,VALID,27.2545,VALID,184,VALID,5.95977,
2011-07-06, 00:09:04,VALID,1000.92,VALID,0,VALID,62.3416,VALID,0,VALID,27.3326,VALID,170,VALID,4.41914,
2011-07-06, 00:10:04,VALID,1000.94,VALID,0,VALID,62.4484,VALID,0,VALID,27.2935,VALID,173,VALID,3.4375,
2011-07-06, 00:11:04,VALID,1000.89,VALID,0,VALID,62.4561,VALID,0,VALID,27.2329,VALID,181,VALID,4.73047,
2011-07-06, 00:12:04,VALID,1000.91,VALID,0,VALID,62.9444,VALID,0,VALID,27.2154,VALID,169,VALID,3.51797,
2011-07-06, 00:13:04,VALID,1000.9,VALID,0,VALID,62.6926,VALID,0,VALID,27.1743,VALID,173,VALID,5.5832,
2011-07-06, 00:14:04,VALID,1000.91,VALID,0,VALID,62.5553,VALID,0,VALID,27.2329,VALID,164,VALID,4.52969,
2011-07-06, 00:15:04,VALID,1000.91,VALID,0,VALID,62.5934,VALID,0,VALID,27.2545,VALID,172,VALID,4.49922,
2011-07-06, 00:16:04,VALID,1000.9,VALID,0,VALID,62.4027,VALID,0,VALID,27.274,VALID,175,VALID,5.42266,
2011-07-06, 00:17:04,VALID,1000.86,VALID,0,VALID,61.9296,VALID,0,VALID,27.3305,VALID,180,VALID,3.72187,
2011-07-06, 00:18:04,VALID,1000.89,VALID,0,VALID,61.716,VALID,0,VALID,27.3717,VALID,177,VALID,4.26328,
2011-07-06, 00:19:04,VALID,1000.89,VALID,0,VALID,61.8304,VALID,0,VALID,27.3305,VALID,173,VALID,4.06406,
2011-07-06, 00:20:04,VALID,1000.88,VALID,0,VALID,61.8915,VALID,0,VALID,27.3326,VALID,186,VALID,4.0582,
2011-07-06, 00:21:04,VALID,1000.86,VALID,0,VALID,61.1361,VALID,0,VALID,27.3305,VALID,178,VALID,4.78086,
2011-07-06, 00:22:04,VALID,1000.84,VALID,0,VALID,61.1896,VALID,0,VALID,27.3696,VALID,180,VALID,4.20039,
2011-07-06, 00:23:04,VALID,1000.87,VALID,0,VALID,61.3727,VALID,0,VALID,27.311,VALID,168,VALID,3.4543,
2011-07-06, 00:24:04,VALID,1000.85,VALID,0,VALID,61.7313,VALID,0,VALID,27.2524,VALID,185,VALID,3.24727,
2011-07-06, 00:25:04,VALID,1000.83,VALID,0,VALID,61.51,VALID,0,VALID,27.2545,VALID,187,VALID,4.0418,
2011-07-06, 00:26:04,VALID,1000.84,VALID,0,VALID,61.3727,VALID,0,VALID,27.2719,VALID,184,VALID,3.78828,
2011-07-06, 00:27:04,VALID,1000.82,VALID,0,VALID,61.4718,VALID,0,VALID,27.2915,VALID,197,VALID,2.76641,
2011-07-06, 00:28:04,VALID,1000.81,VALID,0,VALID,61.3956,VALID,0,VALID,27.2719,VALID,188,VALID,2.92891,
2011-07-06, 00:29:04,VALID,1000.78,VALID,0,VALID,61.0904,VALID,0,VALID,27.274,VALID,184,VALID,3.89648,
2011-07-06, 00:30:04,VALID,1000.79,VALID,0,VALID,61.304,VALID,0,VALID,27.2329,VALID,194,VALID,2.81367,
2011-07-06, 00:31:04,VALID,1000.76,VALID,0,VALID,60.0527,VALID,0,VALID,27.1938,VALID,198,VALID,2.97539,
2011-07-06, 00:32:04,VALID,1000.77,VALID,0,VALID,60.686,VALID,0,VALID,27.2133,VALID,181,VALID,3.57852,
2011-07-06, 00:33:04,VALID,1000.77,VALID,0,VALID,60.7318,VALID,0,VALID,27.2524,VALID,236,VALID,2.61055,
2011-07-06, 00:34:04,VALID,1000.78,VALID,0,VALID,61.2735,VALID,0,VALID,27.2154,VALID,197,VALID,2.59922,
2011-07-06, 00:35:04,VALID,1000.77,VALID,0,VALID,61.2887,VALID,0,VALID,27.1352,VALID,213,VALID,2.68672,
2011-07-06, 00:36:04,VALID,1000.75,VALID,0,VALID,60.0451,VALID,0,VALID,27.1568,VALID,220,VALID,4.48438,
2011-07-06, 00:37:04,VALID,1000.72,VALID,0,VALID,59.6407,VALID,0,VALID,27.2133,VALID,218,VALID,3.65039,
2011-07-06, 00:38:04,VALID,1000.72,VALID,0,VALID,59.9154,VALID,0,VALID,27.2545,VALID,213,VALID,2.93828,
2011-07-06, 00:39:04,VALID,1000.69,VALID,0,VALID,59.3737,VALID,0,VALID,27.2329,VALID,197,VALID,2.93242,
2011-07-06, 00:40:04,VALID,1000.72,VALID,0,VALID,59.7094,VALID,0,VALID,27.2329,VALID,182,VALID,2.6668,
2011-07-06, 00:41:04,VALID,1000.72,VALID,0,VALID,60.007,VALID,0,VALID,27.1352,VALID,207,VALID,2.27539,
2011-07-06, 00:42:04,VALID,1000.74,VALID,0,VALID,60.831,VALID,0,VALID,27.0961,VALID,219,VALID,2.51016,
2011-07-06, 00:43:04,VALID,1000.71,VALID,0,VALID,60.4266,VALID,0,VALID,27.0571,VALID,216,VALID,1.85898,
2011-07-06, 00:44:04,VALID,1000.68,VALID,0,VALID,61.0522,VALID,0,VALID,26.9985,VALID,227,VALID,1.90625,
2011-07-06, 00:45:04,VALID,1000.68,VALID,0,VALID,61.3269,VALID,0,VALID,26.9399,VALID,225,VALID,1.97812,
2011-07-06, 00:46:04,VALID,1000.71,VALID,0,VALID,61.5558,VALID,0,VALID,26.9204,VALID,241,VALID,1.97656,
2011-07-06, 00:47:04,VALID,1000.66,VALID,0,VALID,61.2735,VALID,0,VALID,26.9029,VALID,215,VALID,2.41406,
2011-07-06, 00:48:04,VALID,1000.66,VALID,0,VALID,61.4795,VALID,0,VALID,26.8833,VALID,214,VALID,2.08086,
2011-07-06, 00:49:04,VALID,1000.63,VALID,0,VALID,61.8152,VALID,0,VALID,26.8813,VALID,240,VALID,1.39922,
2011-07-06, 00:50:04,VALID,1000.66,VALID,0,VALID,62.1661,VALID,0,VALID,26.8052,VALID,221,VALID,1.07461,
2011-07-06, 00:51:04,VALID,1000.65,VALID,0,VALID,62.601,VALID,0,VALID,26.7271,VALID,226,VALID,1.47109,
2011-07-06, 00:52:04,VALID,1000.61,VALID,0,VALID,63.097,VALID,0,VALID,26.7076,VALID,254,VALID,1.96641,
2011-07-06, 00:53:04,VALID,1000.64,VALID,0,VALID,62.5018,VALID,0,VALID,26.688,VALID,215,VALID,1.39336,
2011-07-06, 00:54:04,VALID,1000.65,VALID,0,VALID,62.6087,VALID,0,VALID,26.7076,VALID,240,VALID,2.11602,
2011-07-06, 00:55:04,VALID,1000.62,VALID,0,VALID,61.9907,VALID,0,VALID,26.7466,VALID,234,VALID,2.9375,
2011-07-06, 00:56:04,VALID,1000.64,VALID,0,VALID,62.1738,VALID,0,VALID,26.7857,VALID,241,VALID,2.14375,
2011-07-06, 00:57:04,VALID,1000.59,VALID,0,VALID,61.922,VALID,0,VALID,26.8227,VALID,216,VALID,3.08516,
2011-07-06, 00:58:04,VALID,1000.58,VALID,0,VALID,61.7923,VALID,0,VALID,26.8638,VALID,219,VALID,2.79258,
2011-07-06, 00:59:04,VALID,1000.58,VALID,0,VALID,61.9678,VALID,0,VALID,26.8618,VALID,223,VALID,2.18672,
2011-07-06, 01:00:04,VALID,1000.58,VALID,0,VALID,62.4637,VALID,0,VALID,26.8422,VALID,242,VALID,2.03906,
2011-07-06, 01:01:04,VALID,1000.52,VALID,0,VALID,62.4256,VALID,0,VALID,26.8227,VALID,221,VALID,1.64844,
2011-07-06, 01:02:04,VALID,1000.55,VALID,0,VALID,62.6544,VALID,0,VALID,26.7641,VALID,206,VALID,1.79727,
2011-07-06, 01:03:04,VALID,1000.52,VALID,0,VALID,63.0588,VALID,0,VALID,26.7641,VALID,222,VALID,1.77578,
2011-07-06, 01:04:04,VALID,1000.5,VALID,0,VALID,63.2267,VALID,0,VALID,26.7251,VALID,231,VALID,1.19453,
2011-07-06, 01:05:04,VALID,1000.47,VALID,0,VALID,63.0512,VALID,0,VALID,26.7446,VALID,248,VALID,2.06367,
2011-07-06, 01:06:04,VALID,1000.47,VALID,0,VALID,63.4327,VALID,0,VALID,26.7251,VALID,231,VALID,1.83398,
2011-07-06, 01:07:04,VALID,1000.46,VALID,0,VALID,63.8218,VALID,0,VALID,26.6274,VALID,222,VALID,2.40664,
2011-07-06, 01:08:04,VALID,1000.5,VALID,0,VALID,63.8447,VALID,0,VALID,26.6274,VALID,206,VALID,2.47891,
2011-07-06, 01:09:04,VALID,1000.48,VALID,0,VALID,63.6234,VALID,0,VALID,26.686,VALID,199,VALID,2.31172,
2011-07-06, 01:10:04,VALID,1000.47,VALID,0,VALID,64.0507,VALID,0,VALID,26.6254,VALID,230,VALID,1.71289,
2011-07-06, 01:11:04,VALID,1000.46,VALID,0,VALID,64.3864,VALID,0.112286,VALID,26.5668,VALID,225,VALID,1.80117,
2011-07-06, 01:12:04,VALID,1000.4,VALID,0,VALID,64.8594,VALID,0,VALID,26.5298,VALID,239,VALID,1.14609,
2011-07-06, 01:13:04,VALID,1000.42,VALID,0,VALID,65.0196,VALID,0.112286,VALID,26.4517,VALID,236,VALID,1.32813,
2011-07-06, 01:14:04,VALID,1000.36,VALID,0,VALID,65.3248,VALID,0,VALID,26.4341,VALID,266,VALID,1.45625,
2011-07-06, 01:15:04,VALID,1000.35,VALID,0,VALID,65.4927,VALID,0,VALID,26.3951,VALID,202,VALID,1.60625,
2011-07-06, 01:16:04,VALID,1000.33,VALID,0,VALID,65.5613,VALID,0,VALID,26.3756,VALID,229,VALID,1.92734,
2011-07-06, 01:17:04,VALID,1000.38,VALID,0,VALID,65.4774,VALID,0,VALID,26.3931,VALID,219,VALID,2.1,
2011-07-06, 01:18:04,VALID,1000.34,VALID,0,VALID,65.8131,VALID,0,VALID,26.4146,VALID,240,VALID,1.57187,
2011-07-06, 01:19:04,VALID,1000.36,VALID,0,VALID,66.1564,VALID,0,VALID,26.315,VALID,222,VALID,1.32383,
2011-07-06, 01:20:04,VALID,1000.29,VALID,0,VALID,66.3853,VALID,0,VALID,26.2974,VALID,212,VALID,2.08398,
2011-07-06, 01:21:04,VALID,1000.3,VALID,0,VALID,66.4845,VALID,0,VALID,26.2974,VALID,241,VALID,1.95508,
2011-07-06, 01:22:04,VALID,1000.28,VALID,0,VALID,66.187,VALID,0,VALID,26.3345,VALID,228,VALID,2.60078,
2011-07-06, 01:23:04,VALID,1000.31,VALID,0,VALID,66.0725,VALID,0,VALID,26.3736,VALID,229,VALID,2.60664,
2011-07-06, 01:24:04,VALID,1000.31,VALID,0,VALID,66.248,VALID,0,VALID,26.3756,VALID,225,VALID,2.73047,
2011-07-06, 01:25:04,VALID,1000.31,VALID,0,VALID,66.1412,VALID,0,VALID,26.3365,VALID,229,VALID,2.37383,
2011-07-06, 01:26:04,VALID,1000.26,VALID,0,VALID,66.2709,VALID,0,VALID,26.3756,VALID,227,VALID,2.25,
2011-07-06, 01:27:04,VALID,1000.3,VALID,0,VALID,66.2175,VALID,0,VALID,26.3951,VALID,237,VALID,2.78477,
2011-07-06, 01:28:04,VALID,1000.28,VALID,0,VALID,66.5227,VALID,0,VALID,26.3345,VALID,221,VALID,2.16758,
2011-07-06, 01:29:04,VALID,1000.3,VALID,0,VALID,66.8355,VALID,0,VALID,26.313,VALID,219,VALID,1.64766,
2011-07-06, 01:30:04,VALID,1000.3,VALID,0,VALID,67.0949,VALID,0,VALID,26.2349,VALID,207,VALID,1.50117,
2011-07-06, 01:31:04,VALID,1000.31,VALID,0,VALID,67.278,VALID,0,VALID,26.2153,VALID,224,VALID,1.94062,
2011-07-06, 01:32:04,VALID,1000.33,VALID,0,VALID,67.0949,VALID,0,VALID,26.2153,VALID,212,VALID,2.14492,
2011-07-06, 01:33:04,VALID,1000.32,VALID,0,VALID,67.4077,VALID,0,VALID,26.1978,VALID,214,VALID,1.70352,
2011-07-06, 01:34:04,VALID,1000.34,VALID,0,VALID,67.4458,VALID,0,VALID,26.1763,VALID,202,VALID,1.26523,
2011-07-06, 01:35:04,VALID,1000.34,VALID,0,VALID,67.4611,VALID,0,VALID,26.1978,VALID,186,VALID,1.93906,
2011-07-06, 01:36:04,VALID,1000.34,VALID,0,VALID,67.7587,VALID,0.112286,VALID,26.1177,VALID,141,VALID,1.69102,
2011-07-06, 01:37:04,VALID,1000.37,VALID,0,VALID,68.1249,VALID,0,VALID,25.8659,VALID,124,VALID,1.64727,
2011-07-06, 01:38:04,VALID,1000.37,VALID,0,VALID,69.9941,VALID,0,VALID,25.4949,VALID,136,VALID,1.02852,
2011-07-06, 01:39:04,VALID,1000.39,VALID,0,VALID,71.4743,VALID,0,VALID,25.1631,VALID,167,VALID,0.679297,
2011-07-06, 01:40:04,VALID,1000.4,VALID,0,VALID,72.8552,VALID,0.112286,VALID,24.8898,VALID,153,VALID,0.971875,
2011-07-06, 01:41:04,VALID,1000.36,VALID,0,VALID,74.1065,VALID,0,VALID,24.6361,VALID,145,VALID,1.4043,
2011-07-06, 01:42:04,VALID,1000.37,VALID,0,VALID,74.5566,VALID,0,VALID,24.4409,VALID,108,VALID,1.21523,
2011-07-06, 01:43:04,VALID,1000.37,VALID,0,VALID,75.2815,VALID,0.112286,VALID,24.2653,VALID,173,VALID,0.703516,
2011-07-06, 01:44:04,VALID,1000.35,VALID,0,VALID,75.6935,VALID,0,VALID,24.1659,VALID,174,VALID,0.485156,
2011-07-06, 01:45:04,VALID,1000.35,VALID,0,VALID,75.8079,VALID,0,VALID,24.1464,VALID,174,VALID,0.178125,
2011-07-06, 01:46:04,VALID,1000.32,VALID,0,VALID,75.5332,VALID,0,VALID,24.1092,VALID,174,VALID,0.183594,
2011-07-06, 01:47:04,VALID,1000.33,VALID,0,VALID,75.6782,VALID,0,VALID,24.1305,VALID,174,VALID,0.328516,
2011-07-06, 01:48:04,VALID,1000.35,VALID,0,VALID,75.5332,VALID,0,VALID,24.1287,VALID,174,VALID,0.0121094,
2011-07-06, 01:49:04,VALID,1000.32,VALID,0,VALID,75.9376,VALID,0,VALID,24.0701,VALID,174,VALID,0.426953,
2011-07-06, 01:50:04,VALID,1000.31,VALID,0,VALID,75.8308,VALID,0,VALID,24.0311,VALID,173,VALID,0.396875,
2011-07-06, 01:51:04,VALID,1000.32,VALID,0,VALID,75.7469,VALID,0,VALID,24.0311,VALID,173,VALID,0.297266,
2011-07-06, 01:52:04,VALID,1000.28,VALID,0,VALID,75.8461,VALID,0,VALID,24.0116,VALID,173,VALID,0.317969,
2011-07-06, 01:53:04,VALID,1000.29,VALID,0,VALID,75.6629,VALID,0,VALID,24.0311,VALID,106,VALID,0.664063,
2011-07-06, 01:54:04,VALID,1000.29,VALID,0,VALID,76.0673,VALID,0,VALID,24.0311,VALID,78,VALID,1.27344,
2011-07-06, 01:55:04,VALID,1000.29,VALID,0,VALID,76.6243,VALID,0,VALID,23.9921,VALID,79,VALID,1.26016,
2011-07-06, 01:56:04,VALID,1000.25,VALID,0,VALID,77.494,VALID,0,VALID,23.9159,VALID,79,VALID,1.09375,
2011-07-06, 01:57:04,VALID,1000.26,VALID,0,VALID,78.3409,VALID,0,VALID,23.7988,VALID,77,VALID,0.976953,
2011-07-06, 01:58:04,VALID,1000.26,VALID,0,VALID,78.875,VALID,0,VALID,23.6799,VALID,61,VALID,0.794141,
2011-07-06, 01:59:04,VALID,1000.21,VALID,0,VALID,79.0963,VALID,0,VALID,23.5433,VALID,15,VALID,0.809375,
2011-07-06, 02:00:04,VALID,1000.21,VALID,0,VALID,79.6838,VALID,0,VALID,23.4263,VALID,10,VALID,0.966406,
2011-07-06, 02:01:04,VALID,1000.24,VALID,0,VALID,80.2636,VALID,0,VALID,23.3092,VALID,10,VALID,0.586719,
2011-07-06, 02:02:04,VALID,1000.21,VALID,0,VALID,80.668,VALID,0,VALID,23.2117,VALID,10,VALID,0.303125,
2011-07-06, 02:03:04,VALID,1000.19,VALID,0,VALID,80.8969,VALID,0,VALID,23.1336,VALID,10,VALID,0.451953,
2011-07-06, 02:04:04,VALID,1000.21,VALID,0,VALID,81.3546,VALID,0,VALID,23.0769,VALID,10,VALID,0.7,
2011-07-06, 02:05:04,VALID,1000.18,VALID,0,VALID,81.8429,VALID,0,VALID,22.9793,VALID,22,VALID,0.869531,
2011-07-06, 02:06:04,VALID,1000.2,VALID,0,VALID,82.1634,VALID,0,VALID,22.88,VALID,25,VALID,1.33633,
2011-07-06, 02:07:04,VALID,1000.21,VALID,0,VALID,82.5754,VALID,0,VALID,22.7825,VALID,36,VALID,1.07383,
2011-07-06, 02:08:04,VALID,1000.23,VALID,0,VALID,83.2163,VALID,0,VALID,22.646,VALID,32,VALID,0.732031,
2011-07-06, 02:09:04,VALID,1000.23,VALID,0,VALID,83.5443,VALID,0,VALID,22.4899,VALID,31,VALID,0.771484,
2011-07-06, 02:10:04,VALID,1000.24,VALID,0,VALID,84.498,VALID,0,VALID,22.3729,VALID,30,VALID,1.10352,
2011-07-06, 02:11:04,VALID,1000.22,VALID,0,VALID,85.4899,VALID,0,VALID,22.2949,VALID,25,VALID,1.24727,
2011-07-06, 02:12:04,VALID,1000.25,VALID,0,VALID,85.8256,VALID,0,VALID,22.2754,VALID,25,VALID,1.23281,
2011-07-06, 02:13:04,VALID,1000.24,VALID,0,VALID,85.7569,VALID,0,VALID,22.2576,VALID,25,VALID,1.41094,
2011-07-06, 02:14:04,VALID,1000.25,VALID,0,VALID,85.6501,VALID,0,VALID,22.2169,VALID,25,VALID,1.20156,
2011-07-06, 02:15:04,VALID,1000.26,VALID,0,VALID,85.6196,VALID,0,VALID,22.2186,VALID,33,VALID,1.04531,
2011-07-06, 02:16:04,VALID,1000.24,VALID,0,VALID,85.8027,VALID,0,VALID,22.1584,VALID,33,VALID,1.26211,
2011-07-06, 02:17:04,VALID,1000.19,VALID,0,VALID,85.8485,VALID,0,VALID,22.1389,VALID,35,VALID,1.04805,
2011-07-06, 02:18:04,VALID,1000.23,VALID,0,VALID,85.9172,VALID,0,VALID,22.0998,VALID,35,VALID,0.462891,
2011-07-06, 02:19:04,VALID,1000.25,VALID,0,VALID,85.9019,VALID,0,VALID,22.0413,VALID,35,VALID,0.219922,
2011-07-06, 02:20:04,VALID,1000.24,VALID,0,VALID,86.1689,VALID,0,VALID,21.9633,VALID,34,VALID,0.329688,
2011-07-06, 02:21:04,VALID,1000.22,VALID,0,VALID,86.703,VALID,0,VALID,21.9633,VALID,43,VALID,1.04805,
2011-07-06, 02:22:04,VALID,1000.22,VALID,0,VALID,86.5504,VALID,0,VALID,21.9828,VALID,52,VALID,0.450781,
2011-07-06, 02:23:04,VALID,1000.2,VALID,0,VALID,86.3368,VALID,0,VALID,21.9455,VALID,102,VALID,0.380859,
2011-07-06, 02:24:04,VALID,1000.18,VALID,0,VALID,86.6191,VALID,0,VALID,21.9455,VALID,108,VALID,0.323438,
2011-07-06, 02:25:04,VALID,1000.18,VALID,0,VALID,87.0158,VALID,0,VALID,21.9048,VALID,129,VALID,0.371484,
2011-07-06, 02:26:04,VALID,1000.15,VALID,0,VALID,87.3134,VALID,0,VALID,21.9455,VALID,323,VALID,0.54375,
2011-07-06, 02:27:04,VALID,1000.17,VALID,0,VALID,87.3057,VALID,0,VALID,21.965,VALID,48,VALID,1.19336,
2011-07-06, 02:28:04,VALID,1000.2,VALID,0,VALID,87.4507,VALID,0,VALID,21.965,VALID,68,VALID,1.76445,
2011-07-06, 02:29:04,VALID,1000.18,VALID,0,VALID,87.5346,VALID,0,VALID,21.965,VALID,65,VALID,0.896094,
2011-07-06, 02:30:04,VALID,1000.19,VALID,0,VALID,87.6491,VALID,0,VALID,21.9455,VALID,63,VALID,1.95234,
2011-07-06, 02:31:04,VALID,1000.25,VALID,0,VALID,87.0921,VALID,0,VALID,22.0023,VALID,167,VALID,0.612891,
2011-07-06, 02:32:04,VALID,1000.24,VALID,0,VALID,86.7717,VALID,0,VALID,22.043,VALID,69,VALID,0.558203,
2011-07-06, 02:33:04,VALID,1000.25,VALID,0,VALID,86.642,VALID,0,VALID,22.0413,VALID,68,VALID,0.128516,
2011-07-06, 02:34:04,VALID,1000.23,VALID,0,VALID,86.764,VALID,0,VALID,22.043,VALID,68,VALID,0.503906,
2011-07-06, 02:35:04,VALID,1000.26,VALID,0,VALID,86.9319,VALID,0,VALID,22.0235,VALID,68,VALID,0.0199219,
2011-07-06, 02:36:04,VALID,1000.26,VALID,0,VALID,87.1913,VALID,0,VALID,22.0023,VALID,68,VALID,0.397266,
2011-07-06, 02:37:04,VALID,1000.24,VALID,0,VALID,87.2066,VALID,0,VALID,22.043,VALID,68,VALID,0.0273438,
2011-07-06, 02:38:04,VALID,1000.23,VALID,0,VALID,87.0616,VALID,0,VALID,22.0625,VALID,68,VALID,0,
2011-07-06, 02:39:04,VALID,1000.19,VALID,0,VALID,87.2905,VALID,0,VALID,22.0608,VALID,68,VALID,0.450391,
2011-07-06, 02:40:04,VALID,1000.24,VALID,0,VALID,87.2294,VALID,0,VALID,22.0803,VALID,68,VALID,0.404297,
2011-07-06, 02:41:04,VALID,1000.2,VALID,0,VALID,87.0845,VALID,0,VALID,22.121,VALID,81,VALID,0.994531,
2011-07-06, 02:42:04,VALID,1000.21,VALID,0,VALID,87.3439,VALID,0,VALID,22.2186,VALID,81,VALID,0.645703,
2011-07-06, 02:43:04,VALID,1000.23,VALID,0,VALID,86.5886,VALID,0,VALID,22.2771,VALID,81,VALID,0.284375,
2011-07-06, 02:44:04,VALID,1000.2,VALID,0,VALID,86.2681,VALID,0,VALID,22.2364,VALID,81,VALID,0.54375,
2011-07-06, 02:45:04,VALID,1000.23,VALID,0,VALID,86.2757,VALID,0,VALID,22.2364,VALID,81,VALID,0.322266,
2011-07-06, 02:46:04,VALID,1000.22,VALID,0,VALID,86.23,VALID,0,VALID,22.2186,VALID,81,VALID,0.347266,
2011-07-06, 02:47:04,VALID,1000.23,VALID,0,VALID,85.8637,VALID,0,VALID,22.16,VALID,81,VALID,0.432813,
2011-07-06, 02:48:05,VALID,1000.23,VALID,0,VALID,86.3826,VALID,0,VALID,22.0803,VALID,81,VALID,0.317969,
2011-07-06, 02:49:05,VALID,1000.24,VALID,0,VALID,86.7793,VALID,0,VALID,22.0608,VALID,81,VALID,0.50625,
2011-07-06, 02:50:05,VALID,1000.25,VALID,0,VALID,86.5809,VALID,0,VALID,22.0023,VALID,56,VALID,0.792188,
2011-07-06, 02:51:05,VALID,1000.25,VALID,0,VALID,87.176,VALID,0,VALID,21.9828,VALID,14,VALID,0.823047,
2011-07-06, 02:52:05,VALID,1000.24,VALID,0,VALID,86.8403,VALID,0,VALID,21.9633,VALID,14,VALID,0.708203,
2011-07-06, 02:53:05,VALID,1000.26,VALID,0,VALID,86.8861,VALID,0,VALID,21.9048,VALID,14,VALID,0.841406,
2011-07-06, 02:54:05,VALID,1000.25,VALID,0,VALID,87.9085,VALID,0,VALID,21.9048,VALID,14,VALID,0.753516,
2011-07-06, 02:55:05,VALID,1000.25,VALID,0,VALID,88.2671,VALID,0,VALID,21.9243,VALID,21,VALID,0.877344,
2011-07-06, 02:56:05,VALID,1000.3,VALID,0,VALID,88.2137,VALID,0.112286,VALID,21.9048,VALID,21,VALID,0.813281,
2011-07-06, 02:57:05,VALID,1000.31,VALID,0,VALID,88.0306,VALID,0,VALID,21.887,VALID,35,VALID,1.11484,
2011-07-06, 02:58:05,VALID,1000.32,VALID,0,VALID,88.206,VALID,0,VALID,21.8073,VALID,45,VALID,1.04023,
2011-07-06, 02:59:05,VALID,1000.32,VALID,0,VALID,88.2823,VALID,0,VALID,21.7505,VALID,45,VALID,0.847656,
2011-07-06, 03:00:05,VALID,1000.3,VALID,0,VALID,88.29,VALID,0,VALID,21.6741,VALID,45,VALID,1.02617,
2011-07-06, 03:01:05,VALID,1000.3,VALID,0,VALID,88.3129,VALID,0,VALID,21.5555,VALID,45,VALID,0.449609,
2011-07-06, 03:02:05,VALID,1000.29,VALID,0,VALID,88.8011,VALID,0,VALID,21.497,VALID,303,VALID,0.686328,
2011-07-06, 03:03:05,VALID,1000.29,VALID,0,VALID,89.4115,VALID,0,VALID,21.5165,VALID,303,VALID,0.523047,
2011-07-06, 03:04:05,VALID,1000.26,VALID,0,VALID,89.6328,VALID,0,VALID,21.5376,VALID,23,VALID,1.32969,
2011-07-06, 03:05:05,VALID,1000.3,VALID,0,VALID,89.8922,VALID,0,VALID,21.575,VALID,62,VALID,1.06484,
2011-07-06, 03:06:05,VALID,1000.32,VALID,0,VALID,89.1979,VALID,0,VALID,21.5555,VALID,114,VALID,0.359375,
2011-07-06, 03:07:05,VALID,1000.32,VALID,0,VALID,88.8622,VALID,0,VALID,21.536,VALID,27,VALID,0.654297,
2011-07-06, 03:08:05,VALID,1000.29,VALID,0,VALID,89.3505,VALID,0,VALID,21.575,VALID,354,VALID,1.2375,
2011-07-06, 03:09:05,VALID,1000.34,VALID,0,VALID,89.526,VALID,0,VALID,21.6156,VALID,24,VALID,1.09961,
2011-07-06, 03:10:05,VALID,1000.38,VALID,0,VALID,89.3734,VALID,0,VALID,21.6351,VALID,29,VALID,0.540625,
2011-07-06, 03:11:05,VALID,1000.36,VALID,0,VALID,89.3428,VALID,0,VALID,21.6156,VALID,29,VALID,0.564844,
2011-07-06, 03:12:05,VALID,1000.35,VALID,0,VALID,89.5107,VALID,0,VALID,21.6546,VALID,341,VALID,1.19844,
2011-07-06, 03:13:05,VALID,1000.35,VALID,0,VALID,88.8317,VALID,0,VALID,21.7326,VALID,337,VALID,1.09961,
2011-07-06, 03:14:05,VALID,1000.35,VALID,0,VALID,88.5341,VALID,0.112286,VALID,21.731,VALID,316,VALID,0.729297,
2011-07-06, 03:15:05,VALID,1000.35,VALID,0,VALID,88.4197,VALID,0.112286,VALID,21.6903,VALID,334,VALID,0.777734,
2011-07-06, 03:16:05,VALID,1000.37,VALID,0,VALID,88.496,VALID,0,VALID,21.653,VALID,32,VALID,1.03984,
2011-07-06, 03:17:05,VALID,1000.37,VALID,0,VALID,88.3663,VALID,0,VALID,21.5928,VALID,57,VALID,1.46094,
2011-07-06, 03:18:05,VALID,1000.36,VALID,0,VALID,89.1445,VALID,0,VALID,21.5961,VALID,57,VALID,1.4668,
2011-07-06, 03:19:05,VALID,1000.38,VALID,0,VALID,89.4649,VALID,0,VALID,21.5571,VALID,42,VALID,1.23047,
2011-07-06, 03:20:05,VALID,1000.37,VALID,0,VALID,89.5565,VALID,0,VALID,21.4775,VALID,35,VALID,1.0168,
2011-07-06, 03:21:05,VALID,1000.4,VALID,0,VALID,89.8235,VALID,0,VALID,21.4791,VALID,39,VALID,0.899609,
2011-07-06, 03:22:05,VALID,1000.44,VALID,0,VALID,89.8769,VALID,0,VALID,21.4596,VALID,39,VALID,0.35625,
2011-07-06, 03:23:05,VALID,1000.42,VALID,0,VALID,89.793,VALID,0,VALID,21.4011,VALID,33,VALID,0.733203,
2011-07-06, 03:24:05,VALID,1000.44,VALID,0,VALID,89.793,VALID,0,VALID,21.3621,VALID,33,VALID,0,
2011-07-06, 03:25:05,VALID,1000.43,VALID,0,VALID,89.8464,VALID,0,VALID,21.3621,VALID,33,VALID,0.182812,
2011-07-06, 03:26:05,VALID,1000.46,VALID,0,VALID,90.2126,VALID,0,VALID,21.3816,VALID,33,VALID,0.763281,
2011-07-06, 03:27:05,VALID,1000.46,VALID,0,VALID,90.35,VALID,0,VALID,21.4011,VALID,33,VALID,0.492188,
2011-07-06, 03:28:05,VALID,1000.45,VALID,0,VALID,90.4568,VALID,0,VALID,21.4401,VALID,33,VALID,0.674219,
2011-07-06, 03:29:05,VALID,1000.49,VALID,0,VALID,90.205,VALID,0,VALID,21.419,VALID,33,VALID,0.428516,
2011-07-06, 03:30:05,VALID,1000.49,VALID,0,VALID,90.0677,VALID,0,VALID,21.3783,VALID,33,VALID,0.473047,
2011-07-06, 03:31:05,VALID,1000.52,VALID,0,VALID,90.1745,VALID,0.112286,VALID,21.3995,VALID,33,VALID,0.432031,
2011-07-06, 03:32:05,VALID,1000.47,VALID,0,VALID,90.3423,VALID,0,VALID,21.458,VALID,33,VALID,0.750391,
2011-07-06, 03:33:05,VALID,1000.47,VALID,0,VALID,90.1668,VALID,0.112286,VALID,21.4953,VALID,33,VALID,0.383203,
2011-07-06, 03:34:05,VALID,1000.46,VALID,0,VALID,89.854,VALID,0,VALID,21.5555,VALID,276,VALID,0.685547,
2011-07-06, 03:35:05,VALID,1000.5,VALID,0,VALID,89.175,VALID,0,VALID,21.5555,VALID,257,VALID,0.834766,
2011-07-06, 03:36:05,VALID,1000.46,VALID,0,VALID,87.8169,VALID,0,VALID,21.7115,VALID,209,VALID,0.334766,
2011-07-06, 03:37:05,VALID,1000.47,VALID,0,VALID,84.8643,VALID,0,VALID,21.8285,VALID,202,VALID,1.22695,
2011-07-06, 03:38:05,VALID,1000.51,VALID,0,VALID,80.2178,VALID,0,VALID,22.3161,VALID,204,VALID,0.759766,
2011-07-06, 03:39:05,VALID,1000.54,VALID,0,VALID,78.7835,VALID,0,VALID,22.5679,VALID,205,VALID,0.685156,
2011-07-06, 03:40:05,VALID,1000.53,VALID,0,VALID,78.2341,VALID,0,VALID,22.646,VALID,208,VALID,1.08438,
2011-07-06, 03:41:05,VALID,1000.51,VALID,0,VALID,73.3054,VALID,0.112286,VALID,23.0769,VALID,202,VALID,1.84648,
2011-07-06, 03:42:05,VALID,1000.48,VALID,0,VALID,69.1472,VALID,0.112286,VALID,23.8183,VALID,229,VALID,2.42969,
2011-07-06, 03:43:05,VALID,1000.49,VALID,0,VALID,66.5227,VALID,0.112286,VALID,24.3824,VALID,212,VALID,1.83359,
2011-07-06, 03:44:05,VALID,1000.47,VALID,0,VALID,64.6763,VALID,0,VALID,24.7765,VALID,217,VALID,2.13477,
2011-07-06, 03:45:05,VALID,1000.49,VALID,0,VALID,63.364,VALID,0,VALID,25.0479,VALID,201,VALID,2.16406,
2011-07-06, 03:46:05,VALID,1000.49,VALID,0,VALID,63.6387,VALID,0,VALID,25.2431,VALID,212,VALID,1.45977,